GW0457 Weather Reports


Display with metric or nautical units.
time (UTC)temp
F
wind
direction
speed
MPH
gust
MPH
rain 1hr
in
rain 24hr
in
rain mn
in
humidity
%
barometer
mb
20240620015039 77 0 0.0 0.0 0.00 0.00 0.00 75 1025.3
20240620014544 77 0 0.0 0.0 0.00 0.00 0.00 75 1025.3
20240620014038 77 0 0.0 0.0 0.00 0.00 0.00 75 1025.3
20240620013539 77 0 0.0 0.0 0.00 0.00 0.00 75 1025.3
20240620013054 77 0 0.0 0.0 0.00 0.00 0.00 75 1025.3
20240620012538 77 0 0.0 0.0 0.00 0.00 0.00 75 1025.2
20240620012039 77 0 0.0 0.0 0.00 0.00 0.00 75 1025.1
20240620011555 78 0 0.0 0.0 0.00 0.00 0.00 75 1025.1
20240620011040 77 0 0.0 0.0 0.00 0.00 0.00 75 1024.9
20240620010539 78 0 0.0 0.0 0.00 0.00 0.00 75 1025.0
20240620010044 77 0 0.0 0.0 0.00 0.00 0.00 75 1025.0
20240620005538 78 0 0.0 0.0 0.00 0.00 0.00 75 1024.9
20240620005040 78 0 0.0 0.0 0.00 0.00 0.00 75 1024.9
20240620004558 78 0 0.0 0.0 0.00 0.00 0.00 75 1024.8
20240620004038 78 0 0.0 0.0 0.00 0.00 0.00 75 1024.8
20240620003545 78 0 0.0 0.0 0.00 0.00 0.00 74 1024.9
20240620003109 78 0 0.0 0.0 0.00 0.00 0.00 74 1024.9
20240620002537 78 0 0.0 0.0 0.00 0.00 0.00 74 1024.8
20240620002037 78 0 0.0 0.0 0.00 0.00 0.00 75 1024.8
20240620001548 78 0 0.0 0.0 0.00 0.00 0.00 75 1024.8
20240620001037 78 0 0.0 0.0 0.00 0.00 0.00 75 1024.8
20240620000539 78 0 0.0 0.0 0.00 0.00 0.00 75 1025.0
20240620000104 79 0 0.0 0.0 0.00 0.00 0.00 75 1024.8
20240619235538 79 0 0.0 1.0 0.00 0.00 0.00 75 1024.9
20240619235041 79 0 0.0 1.0 0.00 0.00 0.00 75 1024.8
20240619234545 79 0 0.0 1.0 0.00 0.00 0.00 74 1024.9
20240619234039 79 0 0.0 0.0 0.00 0.00 0.00 74 1024.9
20240619233540 79 0 0.0 5.0 0.00 0.00 0.00 74 1025.0
20240619233046 79 0 0.0 5.0 0.00 0.00 0.00 73 1025.0
20240619232538 80 0 0.0 5.0 0.00 0.00 0.00 73 1025.0
20240619232041 80 0 0.0 1.0 0.00 0.00 0.00 73 1025.0
20240619231550 80 0 0.0 0.0 0.00 0.00 0.00 73 1025.0
20240619231039 80 0 0.0 0.0 0.00 0.00 0.00 73 1024.9
20240619230541 80 0 0.0 0.0 0.00 0.00 0.00 72 1025.0
20240619230043 80 0 0.0 0.0 0.00 0.00 0.00 72 1025.0
20240619225539 81 0 0.0 0.0 0.00 0.00 0.00 71 1024.9
20240619225039 81 0 0.0 0.0 0.00 0.00 0.00 71 1024.9
20240619224547 81 0 0.0 0.0 0.00 0.00 0.00 71 1024.8
20240619224037 81 0 0.0 0.0 0.00 0.00 0.00 72 1024.9
20240619223538 82 0 0.0 0.0 0.00 0.00 0.00 72 1024.8
20240619223044 82 0 0.0 0.0 0.00 0.00 0.00 71 1024.9
20240619222538 82 0 0.0 0.0 0.00 0.00 0.00 71 1025.0
20240619222038 82 0 0.0 0.0 0.00 0.00 0.00 70 1024.9
20240619221551 82 0 0.0 0.0 0.00 0.00 0.00 70 1024.8
20240619221037 82 0 0.0 0.0 0.00 0.00 0.00 70 1024.8
20240619220539 82 0 0.0 1.0 0.00 0.00 0.00 70 1024.9
20240619220050 82 0 0.0 1.0 0.00 0.00 0.00 69 1024.9
20240619215539 83 0 0.0 0.0 0.00 0.00 0.00 68 1024.9
20240619215039 83 0 0.0 0.0 0.00 0.00 0.00 67 1024.9
20240619214542 83 0 0.0 0.0 0.00 0.00 0.00 68 1024.9
20240619214040 83 0 0.0 1.0 0.00 0.00 0.00 68 1024.9
20240619213540 83 0 0.0 1.0 0.00 0.00 0.00 67 1024.9
20240619213045 83 0 0.0 0.0 0.00 0.00 0.00 67 1024.8
20240619212538 84 0 0.0 0.0 0.00 0.00 0.00 66 1025.0
20240619212039 84 0 0.0 1.0 0.00 0.00 0.00 66 1025.0
20240619211547 84 0 0.0 1.0 0.00 0.00 0.00 65 1024.9
20240619211038 84 0 0.0 0.0 0.00 0.00 0.00 65 1025.0
20240619210538 84 0 0.0 0.0 0.00 0.00 0.00 65 1025.0
20240619210054 85 0 0.0 0.0 0.00 0.00 0.00 65 1024.9
20240619205539 85 0 0.0 0.0 0.00 0.00 0.00 64 1024.8
20240619205038 85 0 0.0 0.0 0.00 0.00 0.00 64 1025.0
20240619204539 85 0 0.0 0.0 0.00 0.00 0.00 63 1025.1
20240619204038 85 0 0.0 0.0 0.00 0.00 0.00 63 1025.2
20240619203539 85 0 0.0 0.0 0.00 0.00 0.00 62 1025.2
20240619203050 86 0 0.0 0.0 0.00 0.00 0.00 61 1025.3
20240619202542 85 0 0.0 0.0 0.00 0.00 0.00 61 1025.4
20240619202042 85 0 0.0 0.0 0.00 0.00 0.00 62 1025.3
20240619201549 85 0 0.0 3.0 0.00 0.00 0.00 63 1025.5
20240619201039 85 0 0.0 3.0 0.00 0.00 0.00 63 1025.5
20240619200539 85 0 0.0 1.0 0.00 0.00 0.00 64 1025.5
20240619200057 85 0 0.0 1.0 0.00 0.00 0.00 62 1025.5
20240619195539 85 0 0.0 2.0 0.00 0.00 0.00 62 1025.6
20240619195038 85 0 0.0 2.0 0.00 0.00 0.00 61 1025.6
20240619194603 86 0 0.0 1.0 0.00 0.00 0.00 62 1025.8
20240619194038 86 0 0.0 1.0 0.00 0.00 0.00 63 1025.6
20240619193544 86 0 0.0 6.0 0.00 0.00 0.00 61 1025.8
20240619193046 86 0 0.0 6.0 0.00 0.00 0.00 61 1025.8
20240619192538 86 0 0.0 2.0 0.00 0.00 0.00 63 1025.8
20240619192038 85 0 0.0 2.0 0.00 0.00 0.00 62 1025.7
20240619191557 85 0 0.0 2.0 0.00 0.00 0.00 63 1025.8
20240619191041 85 0 0.0 0.0 0.00 0.00 0.00 62 1025.8
20240619190538 85 0 0.0 0.0 0.00 0.00 0.00 62 1025.8
20240619190052 85 0 0.0 0.0 0.00 0.00 0.00 63 1025.7
20240619185539 85 0 0.0 0.0 0.00 0.00 0.00 62 1025.6
20240619185039 85 0 0.0 0.0 0.00 0.00 0.00 62 1025.6
20240619184601 85 0 0.0 0.0 0.00 0.00 0.00 63 1025.7
20240619184039 85 0 0.0 0.0 0.00 0.00 0.00 63 1025.7
20240619183538 85 0 0.0 0.0 0.00 0.00 0.00 63 1025.8
20240619183046 85 0 0.0 0.0 0.00 0.00 0.00 64 1025.8
20240619182539 85 0 0.0 0.0 0.00 0.00 0.00 64 1025.7
20240619182039 85 0 0.0 0.0 0.00 0.00 0.00 63 1025.7
20240619181545 85 0 0.0 0.0 0.00 0.00 0.00 62 1025.8
20240619181038 85 0 0.0 0.0 0.00 0.00 0.00 63 1025.9
20240619180539 85 0 0.0 0.0 0.00 0.00 0.00 61 1025.8
20240619180048 86 0 0.0 2.0 0.00 0.00 0.00 62 1025.9
20240619175538 86 0 0.0 2.0 0.00 0.00 0.00 63 1026.0
20240619175038 86 88 0.0 1.0 0.00 0.00 0.00 62 1026.0
20240619174553 86 0 0.0 1.0 0.00 0.00 0.00 64 1026.0
20240619174042 86 0 0.0 2.0 0.00 0.00 0.00 64 1026.0
20240619173540 85 0 0.0 3.0 0.00 0.00 0.00 64 1026.0
20240619173047 85 0 0.0 3.0 0.00 0.00 0.00 64 1026.1
20240619172537 85 41 0.0 2.0 0.00 0.00 0.00 64 1026.0
20240619172038 85 0 0.0 0.0 0.00 0.00 0.00 65 1026.0
20240619171600 85 0 0.0 0.0 0.00 0.00 0.00 65 1026.1
20240619171041 84 0 0.0 0.0 0.00 0.00 0.00 64 1026.1
20240619170544 84 0 0.0 2.0 0.00 0.00 0.00 63 1026.1
20240619170050 84 0 0.0 2.0 0.00 0.00 0.00 64 1026.1
20240619165539 84 0 0.0 0.0 0.00 0.00 0.00 63 1026.1
20240619165041 84 0 0.0 0.0 0.00 0.00 0.00 64 1026.1
20240619164545 83 0 0.0 0.0 0.00 0.00 0.00 66 1026.1
20240619164041 83 0 0.0 0.0 0.00 0.00 0.00 68 1026.1
20240619163544 82 0 0.0 0.0 0.00 0.00 0.00 67 1026.2
20240619163049 83 0 0.0 2.0 0.00 0.00 0.00 65 1026.3
20240619162539 84 0 0.0 2.0 0.00 0.00 0.00 66 1026.2
20240619162042 84 0 0.0 1.0 0.00 0.00 0.00 67 1026.2
20240619161553 84 0 0.0 0.0 0.00 0.00 0.00 67 1026.3
20240619161038 83 0 0.0 2.0 0.00 0.00 0.00 66 1026.3
20240619160542 84 0 0.0 3.0 0.00 0.00 0.00 64 1026.2
20240619160048 84 0 0.0 3.0 0.00 0.00 0.00 65 1026.0
20240619155541 84 36 0.0 3.0 0.00 0.00 0.00 65 1026.0
20240619155044 83 0 0.0 1.0 0.00 0.00 0.00 67 1026.0
20240619154601 83 0 0.0 2.0 0.00 0.00 0.00 67 1026.0
20240619154041 83 0 0.0 2.0 0.00 0.00 0.00 65 1026.0
20240619153541 84 0 0.0 0.0 0.00 0.00 0.00 65 1026.0
20240619153053 84 0 0.0 1.0 0.00 0.00 0.00 66 1026.0
20240619152540 84 0 0.0 1.0 0.00 0.00 0.00 65 1026.0
20240619152041 84 0 0.0 1.0 0.00 0.00 0.00 66 1025.9
20240619151557 83 0 0.0 0.0 0.00 0.00 0.00 65 1025.8
20240619151043 83 0 0.0 0.0 0.00 0.00 0.00 65 1025.9
20240619150541 84 0 0.0 2.0 0.00 0.00 0.00 63 1025.9
20240619150047 84 0 0.0 2.0 0.00 0.00 0.00 65 1026.0
20240619145541 84 0 0.0 2.0 0.00 0.00 0.00 64 1025.9
20240619145039 84 0 0.0 3.0 0.00 0.00 0.00 65 1026.0
20240619144546 83 0 0.0 3.0 0.00 0.00 0.00 64 1025.9
20240619144041 83 0 0.0 3.0 0.00 0.00 0.00 64 1026.0
20240619143542 83 0 0.0 5.0 0.00 0.00 0.00 64 1026.1
20240619143043 83 0 0.0 5.0 0.00 0.00 0.00 67 1026.0
20240619142541 82 0 0.0 3.0 0.00 0.00 0.00 67 1026.0
20240619142041 82 0 0.0 2.0 0.00 0.00 0.00 68 1026.0
20240619141607 81 0 0.0 0.0 0.00 0.00 0.00 70 1026.0
20240619141041 81 0 0.0 0.0 0.00 0.00 0.00 70 1025.9
20240619140541 81 0 0.0 0.0 0.00 0.00 0.00 71 1026.0
20240619140047 81 0 0.0 1.0 0.00 0.00 0.00 72 1026.1
20240619135538 80 0 0.0 1.0 0.00 0.00 0.00 73 1025.9
20240619135037 79 0 0.0 1.0 0.00 0.00 0.00 73 1026.0
20240619134544 79 0 0.0 2.0 0.00 0.00 0.00 73 1026.0
20240619134038 79 0 0.0 3.0 0.00 0.00 0.00 72 1026.0
20240619133538 79 0 0.0 3.0 0.00 0.00 0.00 73 1026.0
20240619133055 79 0 0.0 0.0 0.00 0.00 0.00 71 1026.0
20240619132542 79 0 0.0 2.0 0.00 0.00 0.00 71 1026.1
20240619132041 79 0 0.0 2.0 0.00 0.00 0.00 71 1026.2
20240619131555 79 0 0.0 2.0 0.00 0.00 0.00 71 1026.1
20240619131041 79 0 0.0 2.0 0.00 0.00 0.00 71 1026.0
20240619130540 79 0 0.0 0.0 0.00 0.00 0.00 71 1025.9
20240619130050 79 0 0.0 0.0 0.00 0.00 0.00 71 1025.8
20240619125541 79 0 0.0 0.0 0.00 0.00 0.00 72 1025.8
20240619125044 79 0 0.0 0.0 0.00 0.00 0.00 73 1025.8
20240619124549 79 0 0.0 0.0 0.00 0.00 0.00 72 1025.9
20240619124038 78 0 0.0 0.0 0.00 0.00 0.00 73 1025.9
20240619123541 78 0 0.0 0.0 0.00 0.00 0.00 72 1025.9
20240619123056 78 0 0.0 0.0 0.00 0.00 0.00 72 1025.9
20240619122544 78 0 0.0 0.0 0.00 0.00 0.00 72 1025.8
20240619122038 78 0 0.0 0.0 0.00 0.00 0.00 73 1025.6
20240619121600 77 0 0.0 0.0 0.00 0.00 0.00 73 1025.7
20240619121038 77 0 0.0 0.0 0.00 0.00 0.00 74 1025.5
20240619120540 77 0 0.0 0.0 0.00 0.00 0.00 74 1025.3
20240619120053 77 0 0.0 0.0 0.00 0.00 0.00 76 1025.4
20240619115542 77 0 0.0 0.0 0.00 0.00 0.00 76 1025.4
20240619115040 76 0 0.0 0.0 0.00 0.00 0.00 77 1025.3
20240619114553 76 0 0.0 0.0 0.00 0.00 0.00 78 1025.6
20240619114045 75 0 0.0 0.0 0.00 0.00 0.00 78 1025.3
20240619113541 75 0 0.0 0.0 0.00 0.00 0.00 79 1025.3
20240619113046 75 0 0.0 0.0 0.00 0.00 0.00 79 1025.2
20240619112542 74 0 0.0 0.0 0.00 0.00 0.00 80 1025.2
20240619112041 74 0 0.0 0.0 0.00 0.00 0.00 81 1025.0
20240619111552 74 0 0.0 0.0 0.00 0.00 0.00 82 1024.9
20240619111038 74 0 0.0 0.0 0.00 0.00 0.00 82 1024.8
20240619110542 73 0 0.0 0.0 0.00 0.00 0.00 82 1024.8
20240619110052 73 0 0.0 0.0 0.00 0.00 0.00 83 1024.7
20240619105538 73 0 0.0 0.0 0.00 0.00 0.00 83 1024.7
20240619105042 72 0 0.0 0.0 0.00 0.00 0.00 83 1024.6
20240619104547 72 0 0.0 0.0 0.00 0.00 0.00 83 1024.5
20240619104037 72 0 0.0 0.0 0.00 0.00 0.00 82 1024.5
20240619103538 72 0 0.0 0.0 0.00 0.00 0.00 82 1024.5
20240619103049 72 0 0.0 0.0 0.00 0.00 0.00 82 1024.4
20240619102543 72 0 0.0 0.0 0.00 0.00 0.00 82 1024.3
20240619102041 72 0 0.0 0.0 0.00 0.00 0.00 82 1024.2
20240619101541 72 0 0.0 0.0 0.00 0.00 0.00 81 1024.1
20240619101043 72 0 0.0 0.0 0.00 0.00 0.00 81 1024.1
20240619100542 72 0 0.0 0.0 0.00 0.00 0.00 81 1024.1
20240619100043 72 0 0.0 0.0 0.00 0.00 0.00 81 1024.0
20240619095541 72 0 0.0 0.0 0.00 0.00 0.00 80 1024.1
20240619095045 72 0 0.0 0.0 0.00 0.00 0.00 80 1024.0
20240619094547 72 0 0.0 0.0 0.00 0.00 0.00 80 1023.9
20240619094045 72 0 0.0 0.0 0.00 0.00 0.00 80 1023.9
20240619093538 73 0 0.0 0.0 0.00 0.00 0.00 79 1023.9
20240619093050 73 0 0.0 0.0 0.00 0.00 0.00 79 1023.8
20240619092538 73 0 0.0 0.0 0.00 0.00 0.00 79 1023.8
20240619092038 73 0 0.0 0.0 0.00 0.00 0.00 79 1023.9
20240619091554 73 0 0.0 0.0 0.00 0.00 0.00 79 1023.8
20240619091037 73 0 0.0 0.0 0.00 0.00 0.00 78 1023.9
20240619090539 73 0 0.0 0.0 0.00 0.00 0.00 78 1023.8
20240619090045 73 0 0.0 0.0 0.00 0.00 0.00 78 1023.7
20240619085541 73 0 0.0 0.0 0.00 0.00 0.00 78 1023.6
20240619085041 73 0 0.0 0.0 0.00 0.00 0.00 78 1023.7
20240619084548 73 0 0.0 0.0 0.00 0.00 0.00 78 1023.7
20240619084041 73 0 0.0 0.0 0.00 0.00 0.00 78 1023.6
20240619083538 73 0 0.0 0.0 0.00 0.00 0.00 78 1023.7
20240619083047 73 0 0.0 0.0 0.00 0.00 0.00 78 1023.6
20240619082544 73 0 0.0 0.0 0.00 0.00 0.00 78 1023.6
20240619082039 73 0 0.0 0.0 0.00 0.00 0.00 77 1023.6
20240619081548 73 0 0.0 0.0 0.00 0.00 0.00 77 1023.6
20240619081040 73 0 0.0 0.0 0.00 0.00 0.00 77 1023.5
20240619080541 73 0 0.0 0.0 0.00 0.00 0.00 76 1023.4
20240619080059 73 0 0.0 0.0 0.00 0.00 0.00 76 1023.2
20240619075537 73 0 0.0 0.0 0.00 0.00 0.00 76 1023.2
20240619075041 74 0 0.0 0.0 0.00 0.00 0.00 76 1023.1
20240619074552 74 0 0.0 0.0 0.00 0.00 0.00 76 1023.2
20240619074040 74 0 0.0 0.0 0.00 0.00 0.00 77 1023.1
20240619073541 74 0 0.0 0.0 0.00 0.00 0.00 77 1023.1
20240619073047 74 0 0.0 0.0 0.00 0.00 0.00 77 1023.1
20240619072541 74 0 0.0 0.0 0.00 0.00 0.00 77 1022.9
20240619072042 74 0 0.0 0.0 0.00 0.00 0.00 77 1023.0
20240619071548 74 0 0.0 0.0 0.00 0.00 0.00 77 1023.0
20240619071041 74 0 0.0 0.0 0.00 0.00 0.00 76 1023.0
20240619070543 75 0 0.0 0.0 0.00 0.00 0.00 76 1023.1
20240619070106 75 0 0.0 0.0 0.00 0.00 0.00 76 1023.1
20240619065545 75 0 0.0 0.0 0.00 0.00 0.00 76 1023.1
20240619065041 75 0 0.0 0.0 0.00 0.00 0.00 77 1023.1
20240619064555 75 0 0.0 0.0 0.00 0.00 0.00 76 1023.3
20240619064043 75 0 0.0 0.0 0.00 0.00 0.00 76 1023.3
20240619063540 75 0 0.0 0.0 0.00 0.00 0.00 75 1023.3
20240619063054 75 0 0.0 0.0 0.00 0.00 0.00 75 1023.3
20240619062538 75 0 0.0 0.0 0.00 0.00 0.00 75 1023.3
20240619062038 76 0 0.0 0.0 0.00 0.00 0.00 76 1023.2
20240619061541 76 0 0.0 2.0 0.00 0.00 0.00 76 1023.4
20240619061039 76 0 0.0 2.0 0.00 0.00 0.00 76 1023.4
20240619060539 76 0 0.0 1.0 0.00 0.00 0.00 77 1023.4
20240619060100 76 0 0.0 1.0 0.00 0.00 0.00 76 1023.5
20240619055539 76 0 0.0 1.0 0.00 0.00 0.00 77 1023.4
20240619055039 76 0 0.0 1.0 0.00 0.00 0.00 77 1023.4
20240619054544 75 0 0.0 4.0 0.00 0.00 0.00 77 1023.5
20240619054039 75 0 0.0 4.0 0.00 0.00 0.00 77 1023.4
20240619053538 75 0 0.0 0.0 0.00 0.00 0.00 78 1023.4
20240619053043 75 0 0.0 0.0 0.00 0.00 0.00 78 1023.2
20240619052541 75 0 0.0 0.0 0.00 0.00 0.00 80 1023.4
20240619052038 75 0 0.0 0.0 0.00 0.00 0.00 80 1023.4
20240619051546 75 0 0.0 0.0 0.00 0.00 0.00 80 1023.4
20240619051039 75 0 0.0 0.0 0.00 0.00 0.00 80 1023.4
20240619050538 75 0 0.0 0.0 0.00 0.00 0.00 80 1023.3
20240619050045 75 0 0.0 0.0 0.00 0.00 0.00 80 1023.3
20240619045539 75 0 0.0 0.0 0.00 0.00 0.00 80 1023.4
20240619045039 75 0 0.0 0.0 0.00 0.00 0.00 80 1023.4
20240619044544 74 0 0.0 0.0 0.00 0.00 0.00 80 1023.6
20240619044039 74 0 0.0 0.0 0.00 0.00 0.00 80 1023.6
20240619043541 73 0 0.0 0.0 0.00 0.00 0.00 80 1023.6
20240619043041 73 0 0.0 0.0 0.00 0.00 0.00 80 1023.8
20240619042539 73 0 0.0 0.0 0.00 0.00 0.00 79 1023.7
20240619042047 73 0 0.0 0.0 0.00 0.00 0.00 79 1023.7
20240619041552 73 0 0.0 0.0 0.00 0.00 0.00 79 1023.7
20240619041039 73 0 0.0 0.0 0.00 0.00 0.00 79 1023.7
20240619040540 73 0 0.0 0.0 0.00 0.00 0.00 79 1023.7
20240619040047 73 0 0.0 0.0 0.00 0.00 0.00 79 1023.8
20240619035545 73 0 0.0 0.0 0.00 0.00 0.00 79 1023.8
20240619035039 73 0 0.0 0.0 0.00 0.00 0.00 78 1023.8
20240619034544 74 0 0.0 0.0 0.00 0.00 0.00 78 1023.8
20240619034038 74 0 0.0 0.0 0.00 0.00 0.00 78 1023.9
20240619033538 74 0 0.0 0.0 0.00 0.00 0.00 77 1023.9
20240619033049 74 0 0.0 0.0 0.00 0.00 0.00 77 1023.9
20240619032539 74 0 0.0 0.0 0.00 0.00 0.00 77 1023.8
20240619032041 74 0 0.0 0.0 0.00 0.00 0.00 77 1023.8
20240619031549 75 0 0.0 0.0 0.00 0.00 0.00 77 1023.8
20240619031040 75 0 0.0 0.0 0.00 0.00 0.00 77 1024.0
20240619030539 75 0 0.0 0.0 0.00 0.00 0.00 76 1023.8
20240619030100 75 0 0.0 0.0 0.00 0.00 0.00 76 1023.9
20240619025538 75 0 0.0 0.0 0.00 0.00 0.00 75 1023.9
20240619025038 75 0 0.0 0.0 0.00 0.00 0.00 75 1023.8
20240619024548 76 0 0.0 0.0 0.00 0.00 0.00 75 1023.7
20240619024039 76 0 0.0 0.0 0.00 0.00 0.00 75 1023.8
20240619023539 76 0 0.0 0.0 0.00 0.00 0.00 75 1023.8
20240619023056 76 0 0.0 0.0 0.00 0.00 0.00 75 1023.8
20240619022538 76 0 0.0 0.0 0.00 0.00 0.00 75 1023.8
20240619022042 76 0 0.0 0.0 0.00 0.00 0.00 74 1023.9
20240619021545 76 0 0.0 0.0 0.00 0.00 0.00 74 1023.8
20240619021038 76 0 0.0 0.0 0.00 0.00 0.00 74 1023.9
20240619020541 76 0 0.0 0.0 0.00 0.00 0.00 74 1023.9
20240619020046 76 0 0.0 0.0 0.00 0.00 0.00 74 1023.8
20240619015539 76 0 0.0 0.0 0.00 0.00 0.00 74 1023.8